Preview of NWS' New Version of Forecast
This preview is not operational and should not be used for support decisions.

Regional Weather Roundup (RWR)

Issued by National Weather Service (NWS)

                            
000
ASUS42 KTBW 212018
RWRFL 
FLORIDA REGIONAL WEATHER ROUNDUP
NATIONAL WEATHER SERVICE TAMPA BAY RUSKIN FL
400 PM EDT SAT SEP 21 2019

NOTE: "FAIR" INDICATES FEW OR NO CLOUDS BELOW 12,000 FEET WITH NO
SIGNIFICANT WEATHER AND/OR OBSTRUCTIONS TO VISIBILITY.

FLZ001>010-012>015-112-114-115-212100-
PANHANDLE FLORIDA
  
CITY           SKY/WX    TMP DP  RH WIND       PRES   REMARKS
PENSACOLA      FAIR      86  68  54 SE13      30.14F                  
PENSACOLA NAS  FAIR      86  68  54 SE16      30.13F                  
MILTON NAS     PTSUNNY   88  61  40 NE9G16    30.13F                  
CRESTVIEW      FAIR      92  58  31 E8G20     30.14F                  
DUKE FIELD     FAIR      90  58  33 E13       30.13F                  
VALPARAISO     FAIR      88  64  44 S10       30.13F                  
MARY ESTHER    MOSUNNY   86  67  51 SE12      30.12F                  
PANAMA CITY    FAIR      88  55  32 E7G17     30.13F                  
TYNDALL AFB    FAIR      89  60  38 E9        30.11F                  
APALACHICOLA   FAIR      87  60  40 E14       30.13F                  

STATION/POSITION SKY/WX   TEMP    WIND        PRES    WAVE   SWELL
                          AIR SEA DIR/SP/G            HT/PER HT/PER
                          (F)     (DEG/KT/KT) (MB)    (FT/S) (FT/S)
30.1N   87.6W              82 84  110/ 16/ 21 1020.6F   7/ 8   3/ 8
29.2N   88.2W              83     100/ 17/ 23 1019.7F   7/ 7   2/14
28.8N   86.0W                 85   90/ 19/ 23 1019.6F   6/ 8   3/ 8
PANAMA CITY BEAC           86 84   50/ 11/ 16 1021.1
TOWER C                    80      70/ 17/ 19 1020.3F
28.5N   84.5W              81      60/ 16/ 21 1020.1F   5/ 6

$$
FLZ011-016>038-118-127-128-134-139-239-212100-
NORTH FLORIDA
  
CITY           SKY/WX    TMP DP  RH WIND       PRES   REMARKS
MARIANNA       FAIR      89  56  32 NE10      30.14F                  
TALLAHASSEE    FAIR      91  62  37 E15G22    30.13F                  
PERRY          PTSUNNY   88  66  46 E9G18     30.14F                  
LIVE OAK       PTSUNNY   88  61  40 NE12G18   30.15F                  
CROSS CITY       N/A     86  63  45 E12       30.12F                  
LAKE CITY      FAIR      86  59  39 E9        30.16F                  
GAINESVILLE    PTSUNNY   86  63  45 E17G23    30.17F                  
WILLISTON      FAIR      86  62  43 E12G18    30.13F                  
PALATKA        PTSUNNY   82  63  51 E12G18    30.16F                  
MAYPORT NAS    FAIR      85  63  47 E15       30.18F                  
JACKSONVILLE   PTSUNNY   83  64  52 NE16      30.18F                  
JAX NAS        PTSUNNY   85  64  49 E14       30.17F                  
JAX CECIL      PTSUNNY   86  66  51 E13G20    30.27R                  
FERNANDINA BEA PTSUNNY   83  67  56 E15       30.19F                  
ST AUGUSTINE   PTSUNNY   82  32  16 E17       30.18F                  
PALM COAST     CLOUDY    82  63  51 NE15      30.16F                  

STATION/POSITION SKY/WX   TEMP    WIND        PRES    WAVE   SWELL
                          AIR SEA DIR/SP/G            HT/PER HT/PER
                          (F)     (DEG/KT/KT) (MB)    (FT/S) (FT/S)
SHELL POINT      NOT AVBL
KEATON BEACH               85      60/  6/  9 1020.1F
CEDAR KEY                  83      80/ 15/ 18 1020.4F
FERNANDINA                 87 80   70/  8/ 13 1023.2F
30.7N   81.3W                 82                N/A     5/ 5   2/12
MAYPORT                    81 81   70/ 13/ 16 1022.6F
31.4N   80.9W              80 81   60/ 12/ 14 1022.5F   4/ 9   3/ 9
ST AUGUSTINE               80 81   70/ 17/ 19 1021.8F

$$
FLZ040-043>046-052-053-057-058-063-144-212100-
INTERIOR CENTRAL FLORIDA
  
CITY           SKY/WX    TMP DP  RH WIND       PRES   REMARKS
OCALA          CLOUDY    85  62  46 E8        30.14F                  
LEESBURG       PTSUNNY   86  65  49 E13       30.13F                  
SANFORD        CLOUDY    83  64  52 E17       30.13F                  
ORLANDO EXEC   CLOUDY    83  64  52 E14       30.13F                  
ORLANDO INTL   PTSUNNY   82  65  56 NE15      30.12F                  
KISSIMMEE      FAIR      84  68  58 E18       30.12F                  
WINTER HAVEN   FAIR      88  66  48 E17G24    30.11F                  
LAKELAND       MOSUNNY   88  66  48 E18G25    30.10F                  
BARTOW         PTSUNNY   86  66  51 NE18G24   30.09F                  
SEBRING        FAIR      87  71  60 E17G23    30.08F                  
OKEECHOBEE     PTSUNNY   84  72  65 NE12G18   30.08S                  

$$
FLZ041-047-054-059-064-141-147-212100-
EAST CENTRAL FLORIDA
  
CITY           SKY/WX    TMP DP  RH WIND       PRES   REMARKS
ORMOND BEACH   CLOUDY    81  64  57 E13G21    30.16F                  
DAYTONA BEACH  PTSUNNY   83  65  54 E17G24    30.15F                  
DELAND         CLOUDY    81  64  57 E18       30.14F                  
NEW SMYRNA BEA PTSUNNY   82  64  54 E14G20    30.16F                  
JFK SPACE CTR  SUNNY     84  70  62 E14G21    30.13F                  
TITUSVILLE     PTSUNNY   86  66  51 E14       30.14F                  
CAPE CANAVERAL FAIR      84  70  62 E18       30.11F                  
PATRICK AFB    FAIR      84  71  63 NE17      30.11F                  
MELBOURNE      CLOUDY    84  69  60 NE18      30.11F                  
VERO BEACH     FAIR      86  69  56 NE16G30   30.10F                  
FT PIERCE      CLOUDY    83  69  62 E16G24    30.09F                  
STUART         MOSUNNY   84  70  61 E22G29    30.10S                  

STATION/POSITION SKY/WX   TEMP    WIND        PRES    WAVE   SWELL
                          AIR SEA DIR/SP/G            HT/PER HT/PER
                          (F)     (DEG/KT/KT) (MB)    (FT/S) (FT/S)
28.5N   80.2W              81 83   60/ 19/ 25 1020.3F  10/15   7/15
28.9N   78.5W              79 80   60/ 17/ 23 1020.9F  10/15   8/15
TRIDENT PIER               83 82   40/ 14/ 19 1021.8F
28.4N   80.5W                 81                N/A     5/15   2/15
27.5N   80.2W                 82                N/A     9/14   5/14

$$
FLZ050-056-061-142-242-148-248-149-249-151-251-155-255-
160-260-212100-
WEST CENTRAL FLORIDA
  
CITY           SKY/WX    TMP DP  RH WIND       PRES   REMARKS
CRYSTAL RIVER  PTSUNNY   86  63  45 NE14      30.11F                  
INVERNESS      PTSUNNY   88  66  48 E12       30.12F                  
BROOKSVILLE    FAIR      89  63  41 E13       30.10F                  
CLEARWATER AIR FAIR      88  63  42 E8        30.07F                  
ST PETE CLEARW FAIR      90  67  46 NE12G22   30.07F                  
TAMPA INTL     PTSUNNY   89  64  43 NE10G20   30.08F                  
TAMPA EXEC     FAIR      88  68  51 E13G20    30.09S                  
PLANT CITY     FAIR      88  70  55 E13G21    30.11S                  
MACDILL AFB    FAIR      89  67  48 SE14      30.07F                  
PETER O KNIGHT PTSUNNY   90  68  48 E16G22    30.08S                  
ST PETERSBURG  FAIR      87  71  58 E20       30.06F                  
SARASOTA       PTSUNNY   89  68  49 E14G21    30.03F                  
VENICE         PTSUNNY   90  70  51 NE14G23   30.04F HX  95           

STATION/POSITION SKY/WX   TEMP    WIND        PRES    WAVE   SWELL
                          AIR SEA DIR/SP/G            HT/PER HT/PER
                          (F)     (DEG/KT/KT) (MB)    (FT/S) (FT/S)
27.3N   84.2W                 84                N/A     6/ 6
CLEARWATER BEACH           87 84   90/ 10/ 14 1018.6F
MIDDLE TAMPA BAY           84     100/ 17/ 22 1018.4F
VENICE                     87 84   50/ 13/ 17 1017.4F

$$
FLZ066-069-070-075>078-162-262-165-265-212100-
SOUTHWEST FLORIDA AND KEYS
  
CITY           SKY/WX    TMP DP  RH WIND       PRES   REMARKS
PUNTA GORDA    FAIR      90  69  50 E17G24    30.05F                  
FT MYERS       FAIR      89  70  53 E18G25    30.02F                  
SOUTHWEST INTL FAIR      88  71  57 E18G28    30.03F                  
NAPLES         FAIR      90  72  55 NE17      30.00F HX  97           
MARCO ISLAND   FAIR      87  72  60 NE18G29   30.02F                  
IMMOKALEE      FAIR      88  72  58 NE17G26   30.02S                  
MARATHON       PTSUNNY   79  76  90 NE21G29   29.96F FOG              
KEY WEST NAS   PTSUNNY   80  74  81 NE20G30   29.97F                  
KEY WEST INTL  PTSUNNY   82  76  81 NE10G20   29.98F                  

STATION/POSITION SKY/WX   TEMP    WIND        PRES    WAVE   SWELL
                          AIR SEA DIR/SP/G            HT/PER HT/PER
                          (F)     (DEG/KT/KT) (MB)    (FT/S) (FT/S)
NAPLES                     87 84   60/ 14/ 21 1016.6S
26.0N   85.6W              83 85   80/ 17/ 23 1016.7F   8/ 8
DRY TORTUGAS               84      70/ 26/ 27 1015.1F
SAND KEY                                      1011.6
SOMBRERO KEY               79      30/ 23/ 30 1012.0
LONG KEY                   80                 1012.9

$$
FLZ067-068-071>074-168-172>174-212100-
SOUTHEAST FLORIDA 
  
CITY           SKY/WX    TMP DP  RH WIND       PRES   REMARKS
W PALM BEACH   PTSUNNY   83  70  64 E20G28    30.07S                  
BOCA RATON     MOSUNNY   84  72  65 NE21G31   30.05F                  
FT LAUDER-EXEC PTSUNNY   84  72  67 NE23G33   30.03F                  
FT LAUDERDALE  PTSUNNY   83  73  72 NE22G30   30.02F                  
POMPANO BEACH  PTSUNNY   85  72  65 NE21G29   30.04F                  
PEMBROKE PINES PTSUNNY   85  72  65 NE24G35   30.04F                  
OPA LOCKA      PTSUNNY   84  73  69 NE24G32   30.03F                  
MIAMI          CLOUDY    84  71  65 NE22G29   30.02F                  
WEST KENDALL   PTSUNNY   82  76  81 NE17G24   30.01F                  
HOMESTEAD      LGT RAIN  82  77  83 NE28      29.99S                  

STATION/POSITION SKY/WX   TEMP    WIND        PRES    WAVE   SWELL
                          AIR SEA DIR/SP/G            HT/PER HT/PER
                          (F)     (DEG/KT/KT) (MB)    (FT/S) (FT/S)
VIRGINIA KEY               82 84   20/ 13/ 20 1016.1
LAKE WORTH                 81 82   50/ 22/ 27 1019.1F
FOWEY ROCKS                83 84   50/ 30/ 31 1016.3F
S